Location: Ch�teau-Arnoux
(44.0814°N, 6.0027°E)
Time: 10:32:33
(UTC+00:00)

Cosmos 2100 Rocket - Pass Details

Date: 15 November 2019
Orbit: 956 x 1001 km, 82.9° (Epoch: 15 December)

Event Time Altitude Azimuth Distance (km) Brightness Sun altitude
Rises 05:31:56 0° 208° (SSW) 3,657 6.9 -10.7°
Reaches altitude 10° 05:34:36 10° 215° (SW) 2,707 6.1 -10.2°
Maximum altitude 05:40:24 41° 285° (WNW) 1,363 4.3 -9.2°
Drops below altitude 10° 05:46:12 10° 355° (N) 2,701 6.1 -8.2°
Sets 05:48:53 0° 3° (N) 3,648 6.8 -7.8°
